This is the latest recevied weather packets stored in our database for station/object CE3MXM-12. If no packets are shown the sender has not sent any weather packets the latest 10 day(s).
| Time | Temp. | Humidity | Pressure | Rain* | Wind** | Luminosity | Snow |
|---|---|---|---|---|---|---|---|
| 1777926282 | 21.67° C | 56% | 1013.4 hPa | - | - | - | - |
| 1777925982 | 21.67° C | 56% | 1013.4 hPa | - | - | - | - |
| 1777925682 | 21.67° C | 56% | 1013.3 hPa | - | - | - | - |
| 1777925382 | 22.22° C | 55% | 1013.4 hPa | - | - | - | - |
| 1777925082 | 22.22° C | 56% | 1013.4 hPa | - | - | - | - |
| 1777924781 | 21.67° C | 57% | 1013.5 hPa | - | - | - | - |
| 1777924482 | 21.11° C | 58% | 1013.5 hPa | - | - | - | - |
| 1777924181 | 20.56° C | 59% | 1013.7 hPa | - | - | - | - |
| 1777923881 | 20° C | 61% | 1013.6 hPa | - | - | - | - |
| 1777923581 | 20° C | 61% | 1013.8 hPa | - | - | - | - |
| 1777923281 | 20.56° C | 61% | 1013.8 hPa | - | - | - | - |
| 1777922981 | 20° C | 62% | 1013.8 hPa | - | - | - | - |
| 1777922681 | 20° C | 62% | 1013.8 hPa | - | - | - | - |
| 1777922381 | 20° C | 62% | 1014.1 hPa | - | - | - | - |
| 1777922081 | 20° C | 63% | 1013.9 hPa | - | - | - | - |
| 1777921780 | 19.44° C | 63% | 1014.1 hPa | - | - | - | - |
| 1777921481 | 20° C | 62% | 1014 hPa | - | - | - | - |
| 1777921180 | 20° C | 62% | 1014.3 hPa | - | - | - | - |
| 1777920880 | 20° C | 62% | 1014.2 hPa | - | - | - | - |
| 1777920584 | 20° C | 63% | 1014.4 hPa | - | - | - | - |
| 1777920280 | 20° C | 62% | 1014.2 hPa | - | - | - | - |
| 1777919980 | 20° C | 62% | 1014.3 hPa | - | - | - | - |
| 1777919682 | 20.56° C | 61% | 1014.4 hPa | - | - | - | - |
| 1777919380 | 21.11° C | 60% | 1014.4 hPa | - | - | - | - |
| 1777919080 | 20.56° C | 62% | 1014.3 hPa | - | - | - | - |
* Rain since midnight (hover to see other rain measurements)
** Current wind speed in m/s (hover to see current wind gust speed)